Flag for China Weather past 2 weeks in Foochow, Fujian, China

Now
57 °F

Passing clouds.


Feels Like: 57 °F
Forecast: 50 / 76 °F
Wind: 3 mph from West

Location: Fuzhou Airport

Current Time: Mar 27, 2015 at 8:17:14 AM

Latest Report: Mar 27, 2015 at 7:00 AM


Visibility: N/A

Pressure: 30.21 "Hg

Humidity: 88%

Dew point: 54 °F

Location of FoochowLocation

Historic Weather in Foochow — Graph

°F

Foochow temperature yesterday

Maximum temperature yesterday: 57 °F (at 8:00 PM)
Minimum temperature yesterday: 54 °F (at 12:00 AM)
Average temperature yesterday: 54 °F

Past Weeks' High & Low Weather Summary

 TemperatureHumidityPressure
High77 °F (Mar 18, 11:00 AM)100% (Mar 17, 3:00 AM)30.48 "Hg (Mar 17, 3:00 AM)
Low43 °F (Mar 13, 6:00 AM)32% (Mar 13, 12:00 PM)29.74 "Hg (Mar 18, 3:00 PM)
Average59 °F77%30.13 "Hg
* Reported Mar 12 7:00 AM — Mar 27 7:00 AM, Foochow, Weather by CustomWeather, © 2015

Note: Actual official high and low records may vary slightly from our data, if they occured in-between our weather recording intervals... More about our weather records

Advertising

Foochow weather history for previous 24 hours

 ConditionsComfort  
Time TempWeatherWind HumidityBarometerVisibility
7:00 AM
Fri, Mar 27
57 °FPassing clouds.3 mph88%30.21 "HgN/A
6:00 AM57 °FSunny.3 mph88%30.21 "Hg10 mi
5:00 AM57 °FPassing clouds.6 mph88%30.18 "Hg5 mi
4:00 AM57 °FOvercast.6 mph88%30.18 "Hg5 mi
3:00 AM57 °FOvercast.6 mph88%30.18 "Hg4 mi
2:00 AM55 °FOvercast.6 mph94%30.21 "Hg4 mi
1:00 AM55 °FFog.6 mph94%30.24 "Hg3 mi
12:00 AM55 °FFog.3 mph94%30.27 "Hg3 mi
11:00 PM
Thu, Mar 26
55 °FLight rain. Fog.1 mph94%30.27 "Hg1 mi
10:00 PM55 °FOvercast.3 mph94%30.30 "Hg4 mi
8:00 PM57 °FLight rain. Overcast.3 mph88%30.27 "HgN/A
7:00 PM55 °FPassing clouds.3 mph94%30.27 "HgN/A
6:00 PM55 °FLight rain. Partly sunny.3 mph94%30.27 "HgN/A
5:00 PM55 °FLight rain. Overcast.3 mph94%30.27 "Hg6 mi
4:00 PM55 °FLight rain. Partly sunny.3 mph88%30.27 "Hg4 mi
3:00 PM54 °FLight rain. Partly sunny.3 mph94%30.30 "Hg5 mi
2:00 PM54 °FLight rain. Partly sunny.3 mph94%30.33 "Hg6 mi
1:00 PM54 °FLight rain. Partly sunny.8 mph88%30.33 "Hg6 mi
12:00 PM54 °FLight rain. Partly sunny.6 mph88%30.36 "Hg6 mi
11:00 AM55 °FPartly sunny.8 mph77%30.39 "HgN/A
10:00 AM55 °FLight rain. Partly sunny.6 mph72%30.39 "HgN/A
9:00 AM54 °FLight rain. Partly sunny.6 mph77%30.39 "HgN/A
8:00 AM55 °FPartly sunny.6 mph67%30.39 "HgN/A
Weather by CustomWeather, © 2015

See weather overviewHow to use our weather pages